Terug naar catalogus

COSMOS 2251 DEB

ActiefLEO
NORAD 34590·DEBRIS·🇷🇺 Russia

Gelanceerd Jun 16, 1993 vanaf Plesetsk Cosmodrome

Loading…

Volgende Passages (komende 24 uur)

TLE

VersSource: Space-Track

Epoch: Sep 14, 2026, 10:14 UTC

1 34590U 93036WC  26257.42674859  .00000241  00000-0  61037-4 0  9997
2 34590  74.0445 160.9060 0070053 221.2052 262.6032 14.55099968931301

Volg COSMOS 2251 DEB in realtime met AllMySat

Download on the App Store